Regional Weather Roundup
Issued by NWS Kansas City/Pleasant Hill, MO

Home | Current Version | Previous Version | Graphics & Text | Print | Product List | Glossary Off
Versions: 1 2 3 4 5 6 7 8 9 10 11 12 13 14 15 16 17 18 19 20 21 22 23 24 25 26 27 28 29 30 31 32 33 34 35 36 37 38 39 40 41 42 43 44 45 46 47 48 49 50

000
ASUS43 KEAX 261411
RWREAX

WEATHER ROUNDUP FOR EASTERN KANSAS AND NORTHWEST MISSOURI
NATIONAL WEATHER SERVICE KANSAS CITY/PLEASANT HILL MO
900 AM CDT SAT JUL 26 2014

KSZ040-057-103>105-MOZ028-029-037-043-261500-
...KANSAS CITY METROPOLITAN AREA...

CITY           SKY/WX    TMP DP  RH WIND       PRES   REMARKS
K.C. INTL      CLOUDY    79  71  76 MISG      29.83S
K.C. DOWNTOWN  PTSUNNY   84  69  60 SW13      29.82S
LEES SUMMIT    PTSUNNY   82  71  69 SW10      29.85R
OLATHE - IXD   PTSUNNY   81  70  69 S13       29.85S
OLATHE - OJC   PTSUNNY   81  70  69 SW12      29.84S
LAWRENCE       CLOUDY    83  70  64 S8        29.82R

$$

MOZ001>008-011>017-020>025-030>033-038>040-044>046-053-054-261500-
...NORTHERN AND CENTRAL MISSOURI...

CITY           SKY/WX    TMP DP  RH WIND       PRES   REMARKS
ST. JOSEPH     CLOUDY    80  72  76 S7        29.81S
MOSBY          CLOUDY    79  72  78 SE3       29.83S
WARRENSBURG    PTSUNNY   81  72  74 S14       29.86R
WHITEMAN AFB   PTSUNNY   81  63  54 SW18      29.86R
CLINTON        PTSUNNY   82  73  74 SW16G22   29.89R
SEDALIA        PTSUNNY   83  71  67 SW21G26   29.88R
WARSAW         NOT AVBL
MARSHALL       CLOUDY    82  75  78 SW8       29.87S HAZE
CHILLICOTHE      N/A     81  73  76 S9        29.83R
MOBERLY        MOSUNNY   81  70  69 SW14      29.87R
KIRKSVILLE     PTSUNNY   78  73  84 SW7       29.85R

$$

MOZ041-047>049-056>058-063>065-088>090-097-261500-
...EASTERN AND SOUTHERN MISSOURI...

CITY           SKY/WX    TMP DP  RH WIND       PRES   REMARKS
ST. LOUIS INTL MOSUNNY   81  71  71 SW10      29.90S
SPIRIT OF STL  PTSUNNY   80  71  74 W7        29.88R
COLUMBIA       CLOUDY    81  73  76 SW9       29.90R
JEFFERSON CITY PTSUNNY   82  72  71 SW5       29.88S
MEXICO         MOSUNNY   82  77  83 SW14G22   29.88S HX  91
HANNIBAL       PTSUNNY   81  72  74 SW8       29.85S
ROLLA          PTSUNNY   79  70  74 SW18G25   29.91S
LEBANON        MOSUNNY   81  70  69 SW13G20   29.96S
OSAGE BEACH    PTSUNNY   82  70  65 SW10      29.91S
SPRINGFIELD    MOSUNNY   81  71  71 SW17      29.97R
BRANSON        SUNNY     82  72  69 SW9       30.01R
NEVADA         MOSUNNY   81  72  74 SW14G21   29.92R
JOPLIN         SUNNY     82  71  69 SW18G25   29.96R
WEST PLAINS    MOSUNNY   79  72  79 SW10      30.01R

$$

IAZ060-094-KSZ022-034>040-054-083-096-NEZ052-066-093-261500-
...KANSAS...SOUTHEAST NEBRASKA AND IOWA...

CITY           SKY/WX    TMP DP  RH WIND       PRES   REMARKS
TOPEKA         CLOUDY    83  69  62 SW3       29.83R
MANHATTAN      CLOUDY    84  63  49 SW12      29.81R
EMPORIA        CLOUDY    84  65  52 SW13      29.86R
CHANUTE        MOSUNNY   82  70  66 SW14G25   29.90R
WICHITA        PTSUNNY   82  65  56 SW12      29.88R
OMAHA          PTSUNNY   75  70  84 N6        29.83R
LINCOLN        PTSUNNY   79  72  79 CALM      29.84R
FALLS CITY     CLOUDY    78  73  84 SE5       29.79S
LAMONI         CLOUDY    74  71  91 NE5       29.83R
DES MOINES     PTSUNNY   73  68  84 SW5       29.85R

$$



USA.gov is the U.S. government's official web portal to all federal, state and local government web resources and services.